Flag for Germany Weather past 2 weeks in Jena, Thuringia, Germany

Now
28 °F

Light snow. Ice fog.


Feels Like: 17 °F
Forecast: 17 / 33 °F
Wind: 14 mph from Northeast

Location: Erfurt-Bindersleben

Current Time: Dec 29, 2014 at 2:14:20 PM

Latest Report: Dec 29, 2014 at 1:50 PM


Visibility: 1 mi

Pressure: 30.30 "Hg

Humidity: 100%

Dew point: 28 °F

Location of JenaLocation

Historic Weather in Jena — Graph

°F

Jena temperature yesterday

Maximum temperature yesterday: 25 °F (at 2:50 PM)
Minimum temperature yesterday: 16 °F (at 9:20 AM)
Average temperature yesterday: 21 °F

Past Weeks' High & Low Weather Summary

 TemperatureHumidityPressure
High54 °F (Dec 18, 8:20 PM)100% (Dec 14, 12:20 PM)30.39 "Hg (Dec 14, 12:20 PM)
Low16 °F (Dec 28, 9:20 AM)55% (Dec 27, 12:20 PM)29.59 "Hg (Dec 27, 1:50 PM)
Average38 °F86%29.99 "Hg
* Reported Dec 14 12:20 PM — Dec 29 12:50 PM, Jena, Weather by CustomWeather, © 2014

Note: Actual official high and low records may vary slightly from our data, if they occured in-between our weather recording intervals... More about our weather records

Advertising

Jena weather history for previous 24 hours

 ConditionsComfort  
Time TempWeatherWind HumidityBarometerVisibility
12:50 PM
Dec 29
32 °FLight snow. Partly sunny.16 mph93%30.27 "HgN/A
12:20 PM32 °FLight snow. Broken clouds.17 mph93%30.24 "Hg4 mi
11:50 AM30 °FLight snow. Broken clouds.14 mph100%30.24 "HgN/A
11:20 AM30 °FBroken clouds.15 mph93%30.24 "HgN/A
10:50 AM28 °FBroken clouds.15 mph93%30.24 "HgN/A
10:20 AM28 °FPartly sunny.16 mph93%30.24 "HgN/A
9:50 AM28 °FLight snow. Partly sunny.21 mph93%30.21 "HgN/A
9:20 AM28 °FBroken clouds.22 mph93%30.21 "HgN/A
8:50 AM27 °FPartly sunny.22 mph93%30.21 "HgN/A
8:20 AM28 °FPartly sunny.20 mph86%30.21 "HgN/A
7:50 AM27 °FPartly cloudy.24 mph93%30.18 "HgN/A
7:20 AM27 °FPassing clouds.22 mph93%30.18 "HgN/A
6:50 AM28 °FLight snow. Passing clouds.24 mph86%30.18 "HgN/A
6:20 AM28 °FPassing clouds.23 mph86%30.18 "HgN/A
5:50 AM28 °FPassing clouds.26 mph86%30.18 "HgN/A
5:20 AM28 °FLight snow. Partly cloudy.21 mph86%30.21 "Hg3 mi
4:50 AM28 °FLight snow. Partly cloudy.18 mph80%30.21 "HgN/A
4:20 AM28 °FPartly cloudy.17 mph80%30.24 "HgN/A
3:50 AM28 °FPartly cloudy.14 mph80%30.24 "HgN/A
3:20 AM27 °FPartly cloudy.14 mph86%30.27 "HgN/A
2:50 AM27 °FPassing clouds.15 mph86%30.30 "HgN/A
2:20 AM27 °FPassing clouds.16 mph86%30.30 "HgN/A
1:50 AM27 °FPassing clouds.15 mph86%30.33 "HgN/A
1:20 AM25 °FPassing clouds.15 mph93%30.33 "HgN/A
12:50 AM25 °FPassing clouds.13 mph86%30.33 "HgN/A
12:20 AM27 °FPassing clouds.12 mph80%30.36 "HgN/A
11:50 PM
Dec 28
25 °FPassing clouds.9 mph93%30.39 "HgN/A
11:20 PM25 °FPassing clouds.9 mph93%30.39 "HgN/A
10:20 PM25 °FPassing clouds.12 mph100%30.36 "HgN/A
9:50 PM23 °FPassing clouds.10 mph93%30.36 "HgN/A
9:20 PM23 °FPassing clouds.9 mph93%30.36 "HgN/A
8:50 PM25 °FPassing clouds.7 mph93%30.36 "HgN/A
8:20 PM23 °FPassing clouds.7 mph93%30.36 "HgN/A
7:50 PM21 °FPassing clouds.8 mph100%30.36 "HgN/A
7:20 PM23 °FPassing clouds.9 mph93%30.33 "HgN/A
6:50 PM23 °FPassing clouds.6 mph93%30.33 "HgN/A
6:20 PM25 °FPassing clouds.1 mph93%30.33 "HgN/A
5:50 PM25 °FPassing clouds.3 mph93%30.30 "HgN/A
5:20 PM25 °FPartly cloudy.3 mph93%30.30 "HgN/A
4:50 PM25 °FPassing clouds.5 mph93%30.30 "HgN/A
4:20 PM25 °FPassing clouds.6 mph93%30.27 "HgN/A
3:50 PM25 °FBroken clouds.8 mph86%30.27 "HgN/A
3:20 PM25 °FPartly sunny.8 mph86%30.24 "HgN/A
2:50 PM25 °FPartly sunny.8 mph80%30.21 "HgN/A
2:20 PM23 °FPassing clouds.9 mph80%30.21 "HgN/A
Weather by CustomWeather, © 2014

See weather overviewHow to use our weather pages